• In Uzbekistan
  • List of Countries
  • For 7 days
  • Water Temperature
  • Satellite Maps
  • Weather Map
  • Weather Widgets
  • user-avatar
    Login

    Hourly Weather Khampho

    Today, 24 June, Sunday

    Time Temperature Precipitation Wind Pressure Humidity
    00:00 +27°C° 0.1 mm 1 mps 733 mmHg 88%
    01:00 +26°C° 0 mm 1 mps 733 mmHg 89%
    02:00 +26°C° 0 mm 1 mps 733 mmHg 90%
    03:00 +26°C° 0 mm 1 mps 733 mmHg 91%
    04:00 +26°C° 0 mm 1 mps 733 mmHg 92%
    05:00 +26°C° 0.5 mm 1 mps 733 mmHg 90%
    06:00 +27°C° 0.5 mm 2 mps 733 mmHg 88%
    07:00 +28°C° 0 mm 2 mps 734 mmHg 85%
    08:00 +28°C° 1.7 mm 2 mps 734 mmHg 84%
    09:00 +29°C° 1.7 mm 3 mps 734 mmHg 83%
    10:00 +30°C° 1.7 mm 3 mps 734 mmHg 81%
    11:00 +30°C° 1.6 mm 3 mps 734 mmHg 80%
    12:00 +30°C° 1.6 mm 3 mps 733 mmHg 79%
    13:00 +31°C° 1.6 mm 3 mps 733 mmHg 78%
    14:00 +31°C° 1.3 mm 2 mps 733 mmHg 79%
    15:00 +31°C° 1.3 mm 2 mps 733 mmHg 79%
    16:00 +30°C° 1.3 mm 2 mps 732 mmHg 80%
    17:00 +29°C° 1 mm 1 mps 732 mmHg 84%
    18:00 +28°C° 1 mm 1 mps 733 mmHg 87%
    19:00 +27°C° 1 mm 1 mps 733 mmHg 91%
    20:00 +26°C° 0.4 mm 1 mps 733 mmHg 91%
    21:00 +26°C° 0.4 mm 1 mps 734 mmHg 92%
    22:00 +26°C° 0.4 mm 1 mps 734 mmHg 92%
    23:00 +26°C° 0.4 mm 1 mps 734 mmHg 93%

    Tomorrow, 25 June, Monday

    Time Temperature Precipitation Wind Pressure Humidity
    00:00 +26°C° 0.4 mm 1 mps 734 mmHg 93%
    01:00 +26°C° 0.4 mm 1 mps 734 mmHg 94%
    02:00 +25°C° 1.1 mm 1 mps 734 mmHg 94%
    03:00 +25°C° 1.1 mm 1 mps 734 mmHg 95%
    04:00 +25°C° 1.1 mm 1 mps 733 mmHg 95%
    05:00 +25°C° 0.9 mm 1 mps 734 mmHg 94%
    06:00 +26°C° 0.9 mm 1 mps 734 mmHg 93%
    07:00 +26°C° 0.9 mm 1 mps 734 mmHg 93%
    08:00 +26°C° 1 mm 1 mps 734 mmHg 93%
    09:00 +26°C° 1 mm 2 mps 735 mmHg 93%
    10:00 +27°C° 1 mm 2 mps 735 mmHg 93%
    11:00 +27°C° 0.9 mm 2 mps 735 mmHg 92%
    12:00 +27°C° 0.9 mm 1 mps 734 mmHg 91%
    13:00 +27°C° 0.9 mm 1 mps 734 mmHg 91%
    14:00 +27°C° 0.7 mm 1 mps 734 mmHg 90%
    15:00 +27°C° 0.7 mm 1 mps 734 mmHg 90%
    16:00 +25°C° 0.7 mm 0 mps 733 mmHg 90%
    17:00 +25°C° 0.2 mm 0 mps 733 mmHg 91%
    18:00 +24°C° 0.2 mm 0 mps 734 mmHg 93%
    19:00 +24°C° 0.2 mm 0 mps 734 mmHg 94%
    20:00 +24°C° 0 mm 0 mps 734 mmHg 95%
    21:00 +24°C° 0 mm 0 mps 735 mmHg 95%
    22:00 +23°C° 0 mm 0 mps 735 mmHg 96%
    23:00 +23°C° 0.2 mm 0 mps 735 mmHg 96%

    Day after tomorrow, 26 June, Tuesday

    Time Temperature Precipitation Wind Pressure Humidity
    00:00 +23°C° 0.2 mm 0 mps 735 mmHg 96%
    01:00 +23°C° 0.2 mm 0 mps 735 mmHg 96%
    02:00 +23°C° 1 mm 0 mps 734 mmHg 96%
    03:00 +23°C° 1 mm 0 mps 734 mmHg 96%
    04:00 +23°C° 1 mm 0 mps 734 mmHg 96%
    05:00 +23°C° 0.5 mm 0 mps 734 mmHg 95%
    06:00 +23°C° 0.5 mm 0 mps 735 mmHg 94%
    07:00 +26°C° 0.5 mm 1 mps 735 mmHg 93%
    08:00 +27°C° 0.7 mm 1 mps 735 mmHg 90%
    09:00 +28°C° 0.7 mm 1 mps 736 mmHg 87%
    10:00 +29°C° 0.7 mm 1 mps 736 mmHg 84%
    11:00 +29°C° 0.2 mm 1 mps 735 mmHg 80%
    12:00 +30°C° 0.2 mm 1 mps 735 mmHg 76%
    13:00 +30°C° 0.2 mm 1 mps 735 mmHg 72%
    14:00 +30°C° 0.2 mm 1 mps 734 mmHg 72%
    15:00 +30°C° 0.2 mm 1 mps 734 mmHg 72%
    16:00 +30°C° 0.2 mm 1 mps 734 mmHg 72%
    17:00 +29°C° 0.1 mm 1 mps 734 mmHg 77%
    18:00 +28°C° 0.1 mm 1 mps 734 mmHg 82%
    19:00 +27°C° 0.1 mm 1 mps 735 mmHg 86%
    20:00 +24°C° 0 mm 0 mps 735 mmHg 87%
    21:00 +24°C° 0 mm 0 mps 735 mmHg 88%
    22:00 +24°C° 0 mm 0 mps 736 mmHg 89%
    23:00 +24°C° 0 mm 0 mps 736 mmHg 89%

    27 June, Wednesday

    Time Temperature Precipitation Wind Pressure Humidity
    00:00 +24°C° 0 mm 0 mps 735 mmHg 89%
    01:00 +23°C° 0 mm 0 mps 735 mmHg 89%
    02:00 +23°C° 0.2 mm 0 mps 735 mmHg 90%
    03:00 +23°C° 0.2 mm 0 mps 735 mmHg 90%
    04:00 +23°C° 0.2 mm 0 mps 735 mmHg 91%
    05:00 +24°C° 0 mm 0 mps 735 mmHg 89%
    06:00 +24°C° 0 mm 0 mps 735 mmHg 87%
    07:00 +25°C° 0 mm 0 mps 736 mmHg 86%
    08:00 +26°C° 0 mm 0 mps 736 mmHg 79%
    09:00 +30°C° 0 mm 1 mps 736 mmHg 72%
    10:00 +31°C° 0 mm 1 mps 736 mmHg 66%
    11:00 +32°C° 0 mm 1 mps 736 mmHg 62%
    12:00 +33°C° 0 mm 1 mps 735 mmHg 58%
    13:00 +35°C° 0 mm 2 mps 735 mmHg 54%
    14:00 +35°C° 0 mm 2 mps 734 mmHg 55%
    15:00 +35°C° 0 mm 2 mps 734 mmHg 56%
    16:00 +35°C° 0 mm 2 mps 733 mmHg 57%
    17:00 +32°C° 0 mm 2 mps 733 mmHg 64%
    18:00 +30°C° 0 mm 1 mps 734 mmHg 72%
    19:00 +28°C° 0 mm 1 mps 734 mmHg 79%
    20:00 +28°C° 0.1 mm 1 mps 734 mmHg 81%
    21:00 +27°C° 0.1 mm 1 mps 735 mmHg 84%
    22:00 +26°C° 0.1 mm 1 mps 735 mmHg 86%
    23:00 +26°C° 0.2 mm 1 mps 735 mmHg 87%

    28 June, Thursday

    Time Temperature Precipitation Wind Pressure Humidity
    00:00 +26°C° 0.2 mm 1 mps 735 mmHg 88%
    01:00 +25°C° 0.2 mm 1 mps 735 mmHg 88%
    02:00 +23°C° 0.1 mm 0 mps 735 mmHg 89%
    03:00 +23°C° 0.1 mm 0 mps 734 mmHg 89%
    04:00 +23°C° 0.1 mm 0 mps 734 mmHg 90%
    05:00 +23°C° 0 mm 0 mps 735 mmHg 87%
    06:00 +24°C° 0 mm 0 mps 735 mmHg 85%
    07:00 +25°C° 0 mm 0 mps 736 mmHg 82%
    08:00 +26°C° 0.1 mm 0 mps 736 mmHg 75%
    09:00 +30°C° 0.1 mm 1 mps 736 mmHg 68%
    10:00 +32°C° 0.1 mm 1 mps 736 mmHg 61%
    11:00 +34°C° 0 mm 2 mps 735 mmHg 59%
    12:00 +35°C° 0 mm 2 mps 735 mmHg 56%
    13:00 +35°C° 0 mm 2 mps 734 mmHg 54%
    14:00 +35°C° 0.4 mm 2 mps 733 mmHg 56%
    15:00 +35°C° 0.4 mm 2 mps 733 mmHg 57%
    16:00 +35°C° 0.4 mm 2 mps 733 mmHg 59%
    17:00 +32°C° 0 mm 1 mps 733 mmHg 64%
    18:00 +31°C° 0 mm 1 mps 733 mmHg 70%
    19:00 +29°C° 0 mm 1 mps 733 mmHg 75%
    20:00 +29°C° 0 mm 1 mps 734 mmHg 76%
    21:00 +28°C° 0 mm 1 mps 734 mmHg 77%
    22:00 +28°C° 0 mm 1 mps 734 mmHg 79%
    23:00 +27°C° 0 mm 1 mps 734 mmHg 81%

    29 June, Friday

    Time Temperature Precipitation Wind Pressure Humidity
    00:00 +27°C° 0 mm 1 mps 734 mmHg 83%
    01:00 +27°C° 0 mm 1 mps 734 mmHg 85%
    02:00 +26°C° 0.6 mm 1 mps 734 mmHg 87%
    03:00 +26°C° 0.6 mm 1 mps 734 mmHg 89%
    04:00 +25°C° 0.6 mm 1 mps 734 mmHg 91%
    05:00 +26°C° 0.1 mm 1 mps 734 mmHg 90%
    06:00 +27°C° 0.1 mm 1 mps 734 mmHg 88%
    07:00 +27°C° 0.1 mm 1 mps 735 mmHg 86%
    08:00 +29°C° 0.2 mm 1 mps 735 mmHg 79%
    09:00 +30°C° 0.2 mm 2 mps 735 mmHg 72%
    10:00 +33°C° 0.2 mm 3 mps 735 mmHg 66%
    11:00 +33°C° 0.9 mm 3 mps 734 mmHg 67%
    12:00 +33°C° 0.9 mm 3 mps 734 mmHg 68%
    13:00 +34°C° 0.9 mm 3 mps 733 mmHg 68%
    14:00 +33°C° 0.6 mm 3 mps 733 mmHg 69%
    15:00 +33°C° 0.6 mm 3 mps 732 mmHg 69%
    16:00 +33°C° 0.6 mm 3 mps 732 mmHg 69%
    17:00 +31°C° 0.1 mm 2 mps 732 mmHg 74%
    18:00 +29°C° 0.1 mm 2 mps 732 mmHg 79%
    19:00 +28°C° 0.1 mm 1 mps 733 mmHg 84%
    20:00 +28°C° 0 mm 1 mps 733 mmHg 85%
    21:00 +27°C° 0 mm 1 mps 734 mmHg 86%
    22:00 +27°C° 0 mm 1 mps 734 mmHg 87%
    23:00 +27°C° 0.4 mm 1 mps 734 mmHg 89%
    Show more